Weather History for Whiteman AFB, MO

Change the Weather History Date:

Thursday, February 28, 2013

  Actual Average Record
Temperature  
Mean Temperature 30 °F -  
Max Temperature 33 °F 44 °F 73 °F (2006)
Min Temperature 26 °F 27 °F 16 °F (2009)
Degree Days  
Heating Degree Days 36    
Moisture  
Dew Point 26 °F    
Average Humidity 85    
Maximum Humidity 93    
Minimum Humidity 75    
Precipitation  
Precipitation 0.00 in - - ()
Sea Level Pressure  
Sea Level Pressure 30.13 in    
Wind  
Wind Speed 13 mph (NW)    
Max Wind Speed 18 mph    
Max Gust Speed 23 mph    
Visibility 10 miles    
Events      
Averages and records for this station are not official NWS values.
T = Trace of Precipitation, MM = Missing Value Source: NWS Daily Summary

Daily Weather History Graph

Daily Weather History Graph

Search for Another Location

Airport:

Trip Planner

Search our weather history database for the weather conditions in past years. The results will help you decide how hot, cold, wet, or windy it might be!

Date:

Astronomy

Feb. 28, 2013 Rise Set
Actual Time 6:47 AM CST 6:06 PM CST
Civil Twilight 6:20 AM CST 6:33 PM CST
Nautical Twilight 5:50 AM CST 7:03 PM CST
Astronomical Twilight 5:19 AM CST 7:34 PM CST
Moon 9:31 PM CST (2/28) 7:59 AM CST (2/28)
Length of Visible Light 12h 12m
Length of Day
11h 18m
Waning Gibbous, 90% of the Moon is Illuminated
Feb 28
Waning Gibbous
Mar 4
Last Quarter
Mar 11
New
Mar 19
First Quarter
Mar 27
Full

Hourly Weather History & Observations

Time (CST) Temp. Windchill Dew Point Humidity Pressure Visibility Wind Dir Wind Speed Gust Speed Precip Events Conditions
12:55 AM 32.2 °F 22.7 °F 26.1 °F 78% 30.02 in 10.0 mi NW 12.7 mph - N/A   Overcast
1:55 AM 31.5 °F 21.4 °F 26.6 °F 82% 30.03 in 10.0 mi NW 13.8 mph - N/A   Overcast
2:55 AM 30.6 °F 21.2 °F 27.3 °F 88% 30.03 in 10.0 mi NW 11.5 mph - N/A   Overcast
3:10 AM 30.2 °F 19.8 °F 28.4 °F 93% 30.04 in 10.0 mi NW 13.8 mph - N/A   Overcast
3:55 AM 30.0 °F 21.1 °F 27.3 °F 90% 30.05 in 10.0 mi NW 10.4 mph - N/A   Overcast
4:55 AM 29.7 °F 18.6 °F 26.1 °F 86% 30.06 in 10.0 mi NNW 15.0 mph - N/A   Overcast
5:55 AM 27.9 °F 15.9 °F 25.2 °F 90% 30.08 in 10.0 mi NNW 16.1 mph - N/A   Overcast
6:15 AM 28.4 °F 16.6 °F 24.8 °F 86% 30.10 in 10.0 mi NW 16.1 mph - N/A   Overcast
6:55 AM 27.1 °F 14.1 °F 24.8 °F 91% 30.12 in 10.0 mi NW 18.4 mph 23.0 mph N/A   Overcast
7:27 AM 26.6 °F 14.7 °F 24.8 °F 93% 30.13 in 10.0 mi WNW 15.0 mph - N/A   Overcast
7:55 AM 27.0 °F 15.6 °F 24.6 °F 91% 30.14 in 10.0 mi WNW 13.8 mph - N/A   Overcast
8:14 AM 26.6 °F 14.7 °F 24.8 °F 93% 30.15 in 10.0 mi NW 15.0 mph 23.0 mph N/A   Overcast
8:55 AM 27.7 °F 16.1 °F 24.8 °F 89% 30.15 in 10.0 mi NW 15.0 mph - N/A   Overcast
9:04 AM 28.4 °F 16.2 °F 24.8 °F 86% 30.15 in 10.0 mi NW 17.3 mph - N/A   Overcast
9:55 AM 28.9 °F 18.6 °F 25.3 °F 86% 30.16 in 10.0 mi NW 12.7 mph - N/A   Overcast
11:55 AM 31.1 °F 20.1 °F 26.4 °F 83% 30.17 in 10.0 mi NW 16.1 mph - N/A   Overcast
12:55 PM 31.8 °F 21.0 °F 26.1 °F 79% 30.17 in 10.0 mi WNW 16.1 mph - N/A   Overcast
1:55 PM 32.9 °F 24.1 °F 26.2 °F 76% 30.17 in 10.0 mi NW 11.5 mph - N/A   Overcast
2:58 PM 32.9 °F 22.8 °F 26.2 °F 76% 30.13 in 10.0 mi NW 15.0 mph - N/A   Overcast
3:58 PM 33.1 °F 23.9 °F 26.2 °F 76% 30.14 in 10.0 mi NW 12.7 mph - N/A   Overcast
4:58 PM 32.4 °F 25.3 °F 25.9 °F 77% 30.14 in 10.0 mi NW 8.1 mph - N/A   Overcast
5:28 PM 32.0 °F 23.6 °F 24.8 °F 75% 30.15 in 10.0 mi NW 10.4 mph - N/A   Overcast
5:58 PM 31.6 °F 24.4 °F 25.9 °F 79% 30.15 in 10.0 mi WNW 8.1 mph - N/A   Overcast
6:18 PM 32.0 °F 26.4 °F 26.6 °F 80% 30.16 in 10.0 mi WNW 5.8 mph - N/A   Overcast
6:33 PM 32.0 °F 25.6 °F 26.6 °F 80% 30.16 in 10.0 mi WNW 6.9 mph - N/A   Overcast
6:58 PM 31.1 °F 23.7 °F 26.2 °F 82% 30.16 in 10.0 mi WNW 8.1 mph - N/A   Overcast
7:58 PM 30.7 °F 23.3 °F 26.8 °F 85% 30.16 in 10.0 mi WNW 8.1 mph - N/A   Overcast
8:58 PM 30.6 °F 22.4 °F 27.1 °F 87% 30.17 in 10.0 mi WNW 9.2 mph - N/A   Overcast
9:58 PM 30.4 °F 22.9 °F 27.0 °F 87% 30.18 in 10.0 mi WNW 8.1 mph - N/A   Overcast
10:58 PM 30.0 °F 22.4 °F 27.5 °F 90% 30.16 in 10.0 mi NW 8.1 mph - N/A   Overcast
11:58 PM 29.8 °F 22.2 °F 27.9 °F 92% 30.16 in 10.0 mi NW 8.1 mph - N/A   Overcast